TELSTAR 18V

Last updated on Tue Oct 28 2025 00:02:50 GMT+0000 (Coordinated Universal Time)

1 43611U 18069A 25300.28645066 -.00000282 00000+0 00000+0 0 9997 2 43611 0.0238 267.8812 0001802 301.0935 68.0935 1.00273515 26290
UTC large
Height (km)
Speed (km/s)
/
Latitude / Longitude
Inclination (degrees)
Orbital Period (minutes)
Azimuth
Elevation
Range (km)
Doppler Factor

Next 0 passes for location: London (51.5072 / 0.1276)

Sorry there are no passes over London.